sat.trackr.live / text

‹ back to catalog

ONEWEB-0536

NORAD 54148 · 2022-138AM

PAYLOAD ACTIVE UNKNOWN

§ Identity

Operator
Country
UK
Launch date
2022-10-22
Launch site
SRILR
Launch vehicle
Mass (kg)
RCS (m²)

Purposes: comms

External: N2YO · Heavens-Above · Gunter

§ Orbital elements

Epoch: 2026-09-20T05:14:43.477728Z

Period
109.03 min
Inclination
87.9140°
Eccentricity
0.0001511
Mean motion
13.20773468 rev/d
Perigee alt
1,180.6 km
Apogee alt
1,182.9 km
Semi-major
7,559.9 km
B*
-1.5773e-4
RAAN
255.4912°
Arg perigee
117.2665°
Mean anomaly
242.8622°
Rev number
19,184

§ Raw data

ONEWEB-05361 54148U 22138AM  26263.21855877 -.00000051  00000+0 -15773-3 0  99932 54148  87.9140 255.4912 0001511 117.2665 242.8622 13.20773468191847

JSON: /api/v1/satellites/54148 · /tle

For live sub-satellite position, see the globe view (requires WebGL).

§ Visibility from observer

Set your observer location to see the next 7 days of passes ≥ 10°. The values pass through the URL so the page stays shareable.

No JS? Fill the form by hand. The geolocation button needs JavaScript.